Regional Weather Roundup
Issued by NWS

Home | Current Version | Previous Version | Graphics & Text | Print | Product List | Glossary On
Versions: 1 2 3 4 5 6 7 8 9 10 11 12 13 14 15 16 17 18 19 20 21 22 23 24 25 26 27 28 29 30 31 32 33 34 35 36 37 38 39 40 41 42 43 44 45 46 47 48 49 50
000
ASUS43 KLMK 270102
RWRKY
KENTUCKY REGIONAL WEATHER ROUNDUP
NATIONAL WEATHER SERVICE LOUISVILLE KY
900 PM EDT FRI AUG 26 2016

NOTE "FAIR" INDICATES FEW OR NO CLOUDS BELOW 12,000 FEET
WITH NO SIGNIFICANT WEATHER AND/OR OBSTRUCTIONS TO VISIBILITY.

KYZ001>023-026-027-061>063-070>075-270200-
WESTERN AND SOUTH CENTRAL KENTUCKY

CITY           SKY/WX    TMP DP  RH WIND       PRES   REMARKS
PADUCAH        CLOUDY    75  71  87 W6        30.06S
HENDERSON      CLOUDY    79  70  73 N3        30.06R
OWENSBORO      CLOUDY    81  75  81 NW6       30.07R
HOPKINSVILLE   CLOUDY    83  76  80 CALM      30.06R HX  92
BOWLING GREEN  CLOUDY    83  74  74 NE3       30.07R
GLASGOW        CLOUDY    79  73  82 CALM      30.09R
$$

KYZ024-025-028>034-038-045-046-053-270200-
NORTH CENTRAL KENTUCKY

CITY           SKY/WX    TMP DP  RH WIND       PRES   REMARKS
LOUISVILLE/SDF MOCLDY    88  65  46 CALM      30.07R HX  90
LOUISVILLE/LOU CLEAR     87  67  51 CALM      30.08R HX  90
FORT KNOX      CLOUDY    78  73  84 NE2       30.07S
$$

KYZ035>037-039>044-047>052-055>060-089>105-270200-
NORTHEAST KENTUCKY

CITY           SKY/WX    TMP DP  RH WIND       PRES   REMARKS
LEXINGTON      CLEAR     84  69  60 CALM      30.12R
COVINGTON      CLOUDY    81  67  62 SE16      30.13R THUNDER
FRANKFORT      PTCLDY    81  72  74 CALM      30.10R
$$

KYZ054-064>069-076>088-106>120-270200-
SOUTHEAST KENTUCKY

CITY           SKY/WX    TMP DP  RH WIND       PRES   REMARKS
JACKSON        CLEAR     80  68  66 CALM      30.15R
LONDON         CLEAR     80  69  69 N3        30.13R
SOMERSET       CLEAR     79  68  69 CALM      30.12R
MIDDLESBORO    CLEAR     79  74  86 W3        30.13R
MONTICELLO     CLEAR    N/A N/A N/A VRB6      30.13R
$$





USA.gov is the U.S. government's official web portal to all federal, state and local government web resources and services.